Theta_e
320 323 318 317 316 317 318 319 320 319 318 319 318 318 317 318 319 319 317 318 318 318 317 316 316 318 315 315 314 315 317 319 322 324 325 324 323 324 325 325 323 322 322 324 325 325 325 324 325 325 324 321 321 323 322 320 321 321 320 319 318 319 318 315 311 312 318 322 322 319 317 316 315 315 313 312 312 313 314 311 311 311 311 307 307
315 316 316 316 316 316 318 318 318 318 319 318 318 316 315 317 320 317 317 317 318 316 315 315 315 315 314 314 314 314 314 316 318 324 324 323 322 322 324 324 323 321 321 320 322 325 323 322 322 323 324 323 321 321 320 320 318 319 317 317 317 318 318 316 312 312 311 315 320 317 317 317 313 315 313 311 312 313 312 313 314 314 312 307 305
316 315 315 315 316 316 317 316 316 318 317 317 316 316 317 317 316 316 316 316 315 315 315 313 313 313 313 314 314 313 313 313 317 322 320 321 322 322 322 322 321 320 319 320 321 321 322 322 321 321 322 322 321 321 320 319 318 317 316 316 316 316 317 316 315 311 310 314 316 314 314 316 314 313 315 315 315 314 311 312 314 314 311 308 306
314 314 314 315 316 316 315 316 317 315 314 315 316 317 315 315 316 315 314 315 313 314 314 313 312 312 312 312 312 312 312 312 313 316 319 321 320 318 317 320 320 319 319 320 320 320 320 321 321 320 321 320 320 321 321 319 319 317 316 315 316 317 316 317 315 314 314 312 313 313 314 315 313 316 314 315 314 312 313 313 312 312 310 308 306
314 313 314 314 315 314 315 315 315 315 315 316 316 316 315 315 316 313 313 312 312 313 312 312 312 311 312 311 311 310 311 312 313 316 317 318 318 317 317 318 319 319 320 320 320 319 319 319 320 321 319 318 317 319 319 319 318 317 316 315 313 317 317 317 314 313 312 312 315 316 315 313 315 313 311 310 311 311 311 312 311 310 310 308 307
313 313 313 313 312 313 314 315 314 314 315 315 316 316 316 315 313 313 311 311 311 311 311 311 312 311 310 310 310 311 311 312 315 317 316 317 317 317 317 317 317 319 320 319 319 319 319 320 321 320 319 318 317 319 319 317 317 318 317 316 315 316 318 317 317 315 312 312 312 313 314 315 311 313 311 311 312 310 309 309 311 311 309 305 306
313 313 314 313 313 311 313 315 315 314 315 315 314 313 313 314 312 311 311 311 310 310 310 310 311 311 310 311 311 311 312 313 319 317 317 317 317 316 317 317 317 318 318 319 320 320 320 321 321 321 319 318 318 319 318 317 318 319 318 317 318 315 315 314 313 313 312 311 311 312 313 314 313 310 311 312 312 309 309 311 307 308 309 307 305
312 312 313 313 312 312 314 315 313 313 314 313 313 313 312 311 312 312 312 311 310 310 310 310 310 311 310 311 311 312 312 313 319 318 318 317 317 316 316 316 316 317 318 318 318 319 320 321 320 320 319 318 317 319 319 317 318 316 316 317 317 317 313 315 313 311 311 311 310 309 310 312 309 312 314 310 306 307 310 310 308 308 307 309 308
312 311 311 311 311 312 313 314 314 312 312 312 312 311 311 311 311 310 310 310 312 311 311 311 310 310 311 312 311 312 313 317 318 317 316 316 316 315 315 315 315 316 317 316 317 318 318 319 319 319 319 320 320 320 321 320 318 315 315 317 315 317 316 314 314 312 311 311 310 311 310 309 309 308 307 308 305 305 307 308 306 309 309 309 310
313 311 310 310 310 310 311 311 310 311 311 310 310 311 310 310 310 310 310 311 311 311 311 311 310 310 310 310 311 313 314 319 318 311 309 312 314 315 315 315 315 315 315 315 316 317 317 318 318 320 319 319 320 313 311 315 319 319 315 317 317 314 314 314 314 311 312 310 309 308 307 308 307 308 306 307 309 309 308 308 305 307 307 305 309
311 311 310 310 309 309 309 309 309 309 310 310 310 309 309 310 310 310 311 311 311 311 311 310 310 311 311 310 311 313 314 318 307 295 297 300 309 313 313 313 314 314 315 315 314 315 315 315 316 317 317 317 313 308 307 308 308 308 309 311 315 315 315 313 311 313 311 311 312 310 308 307 309 310 309 309 308 308 306 308 307 306 304 304 301
311 310 309 309 309 308 309 308 308 308 308 307 308 308 309 308 308 309 309 309 310 311 311 310 311 311 311 311 311 312 313 311 296 298 298 297 302 309 312 313 313 314 315 315 314 314 314 313 313 316 316 316 313 310 308 305 302 302 302 302 301 301 304 310 311 310 308 309 309 310 310 309 309 309 308 309 307 307 308 307 306 305 303 303 303
309 308 309 308 308 309 307 307 307 307 307 308 309 308 308 307 308 308 308 310 310 310 310 310 310 310 310 309 310 311 312 305 298 298 298 297 296 303 311 312 313 313 314 314 314 314 314 313 311 312 314 315 315 313 310 308 306 305 306 305 303 298 294 296 302 308 307 307 308 309 311 311 311 310 311 310 310 307 307 305 305 305 305 305 308
309 308 308 308 308 307 307 307 306 307 307 307 308 307 307 307 308 308 309 309 309 309 309 309 310 310 310 310 310 310 310 310 297 298 297 295 295 296 310 312 313 313 314 314 314 314 314 314 313 312 312 314 313 314 312 309 308 308 308 308 308 307 299 296 295 299 305 307 306 307 310 308 310 313 314 311 309 306 305 304 306 305 305 307 308
308 308 308 308 308 307 306 306 306 306 307 307 307 306 307 307 307 308 308 308 308 308 308 308 309 309 309 309 309 309 311 303 296 296 295 295 296 300 312 313 313 314 314 315 315 314 314 314 314 313 313 312 313 313 312 309 307 306 306 308 307 308 308 309 307 307 309 309 309 311 308 305 305 310 314 313 310 309 308 306 307 308 309 309 309
307 308 307 307 307 307 306 306 306 306 306 306 305 305 306 306 306 307 308 308 308 308 308 308 308 308 308 309 308 308 309 298 294 294 295 294 298 310 310 310 310 312 313 315 315 315 315 314 313 313 313 313 312 305 309 310 307 306 305 305 305 306 308 311 303 305 309 307 306 305 304 302 297 299 301 311 311 310 311 311 310 310 305 303 302
306 307 307 307 307 306 306 306 306 305 305 305 304 305 305 306 306 307 306 306 306 307 307 307 308 307 308 308 308 308 308 298 294 294 295 294 301 309 309 309 309 310 311 314 315 316 316 315 313 312 312 313 308 300 301 308 308 306 305 305 305 304 305 309 298 294 294 294 293 293 293 293 295 295 295 295 306 312 308 305 304 307 302 300 302
306 306 306 306 307 306 306 305 305 305 304 304 304 305 306 306 306 307 306 305 305 306 307 306 307 307 307 307 308 308 309 302 294 295 294 294 301 307 308 308 308 309 310 313 312 313 316 316 316 314 312 312 304 299 299 306 307 306 305 304 304 304 305 308 305 301 295 294 294 294 295 296 295 295 295 295 298 307 309 303 304 304 301 301 299
306 306 306 306 307 307 307 306 306 305 304 304 305 305 305 306 306 307 306 306 306 306 306 305 306 306 307 307 310 310 310 308 294 294 294 293 300 307 307 307 307 308 309 310 312 313 315 315 315 313 313 310 302 298 298 305 308 307 306 305 304 303 305 307 305 302 301 302 302 303 302 300 308 308 308 297 300 308 308 306 306 305 302 301 301
306 307 307 307 308 307 307 307 308 306 305 305 306 305 306 305 306 305 306 305 304 305 305 305 305 305 306 307 308 312 311 310 302 293 294 295 294 303 307 306 305 305 306 307 308 310 312 312 312 303 298 297 298 296 297 299 308 308 307 305 304 304 308 306 306 305 304 304 305 306 306 307 307 308 310 307 309 310 308 307 307 306 304 302 304
308 307 307 307 306 306 307 307 308 308 306 306 306 306 305 304 305 305 305 305 305 305 305 305 305 305 306 306 308 309 310 308 307 293 294 295 293 296 306 305 305 305 305 305 307 308 309 311 311 307 299 298 296 294 295 296 302 309 308 306 307 307 306 306 307 308 305 305 305 306 305 306 306 307 306 307 307 308 307 306 305 306 305 304 302
309 307 307 306 307 307 308 310 310 309 308 308 307 306 306 305 305 305 304 304 304 304 304 304 304 304 305 306 307 308 311 309 310 303 296 293 294 292 301 305 304 303 304 305 306 307 308 309 310 306 298 297 294 295 294 295 296 307 307 297 296 299 308 309 307 307 305 304 304 304 303 303 303 304 304 304 306 306 306 305 305 305 306 306 304
308 307 307 307 309 309 309 310 309 309 308 308 306 305 305 305 305 304 304 304 304 302 302 303 304 302 303 304 306 307 309 310 303 306 300 296 294 293 293 296 295 301 304 304 305 306 308 307 308 302 294 294 294 293 294 294 301 301 293 294 294 296 302 305 306 305 304 303 302 301 302 302 302 302 302 302 304 304 303 304 306 306 306 307 306
309 308 310 309 309 311 308 308 309 309 308 307 306 305 305 305 304 304 304 304 302 300 301 302 301 300 300 301 303 305 307 310 307 302 303 298 295 294 293 292 291 298 301 303 306 307 305 303 301 294 293 294 293 292 293 295 301 293 293 293 295 299 302 302 303 304 302 301 301 301 301 302 302 303 303 304 304 304 304 304 305 306 305 307 306
310 309 308 308 312 310 310 308 308 308 307 307 306 305 304 304 303 303 303 302 301 302 301 300 299 297 297 298 300 303 304 307 309 304 298 298 296 295 294 293 294 291 298 305 306 304 297 292 293 293 292 293 292 293 293 294 293 292 293 294 303 302 301 301 301 301 300 299 300 299 300 302 303 303 305 305 305 305 304 305 304 305 306 307 307
309 309 308 309 310 309 308 308 307 307 308 307 306 305 304 304 303 303 302 301 300 302 299 298 298 297 297 297 298 301 303 304 306 306 303 302 300 297 296 295 298 297 297 299 296 294 292 292 294 295 294 294 297 298 298 297 292 291 293 300 303 301 301 301 301 301 300 299 299 298 297 297 298 306 307 307 306 304 303 302 303 303 304 304 302
309 309 309 308 310 311 308 306 306 306 306 306 305 305 304 304 303 303 301 300 300 299 299 298 297 296 296 296 298 300 301 302 305 304 303 303 302 302 302 302 300 298 300 302 301 301 301 299 298 294 294 293 296 297 297 294 296 298 299 300 302 301 301 300 300 299 299 299 300 300 299 297 302 301 302 303 302 304 304 303 303 303 303 302 300
309 308 308 308 308 307 307 302 304 305 305 305 305 305 305 305 303 302 301 301 300 299 298 298 297 297 296 296 297 298 299 300 303 301 301 300 300 301 301 301 300 299 298 299 298 299 301 297 296 302 301 299 299 300 300 299 298 297 299 300 301 302 302 303 302 300 300 299 299 301 298 299 300 299 299 301 303 302 303 303 303 302 301 302 299
309 310 309 308 308 308 308 306 306 305 305 305 305 306 305 305 304 303 305 305 305 300 299 299 299 299 297 296 297 298 299 300 301 293 296 291 293 297 298 298 297 297 297 293 295 298 301 303 302 301 301 300 299 299 299 299 298 299 300 300 301 302 300 298 297 298 298 297 296 299 298 297 297 297 296 297 301 302 303 303 303 302 301 302 299
311 309 308 308 308 308 307 306 305 305 305 307 304 306 300 299 300 302 302 300 296 295 294 299 300 299 298 299 301 300 300 302 291 290 291 290 290 290 291 291 290 291 291 289 291 296 299 302 302 301 300 300 299 299 299 299 299 298 300 297 300 300 299 298 298 298 298 297 297 300 297 296 296 296 295 296 297 300 301 300 302 302 300 299 299
307 307 308 308 306 306 305 306 307 306 306 307 304 304 304 306 297 296 294 295 295 293 291 292 293 293 297 298 299 297 296 291 290 290 290 290 290 290 291 291 291 290 288 290 296 299 300 300 302 302 300 300 299 299 299 299 298 298 298 299 300 299 296 298 299 297 297 299 299 300 297 297 296 296 295 295 297 298 299 300 301 302 300 299 298
308 308 307 307 308 307 310 307 308 306 305 306 305 305 305 303 302 298 294 293 292 292 292 292 292 292 292 294 298 300 297 291 291 290 289 289 290 290 291 291 292 291 290 289 291 293 299 300 300 301 301 300 300 300 299 299 299 299 299 297 297 298 298 298 299 300 299 300 300 297 299 298 297 296 296 296 294 297 298 299 300 299 299 300 299
310 309 308 307 307 307 309 308 308 305 306 307 306 305 304 301 300 300 305 291 291 292 292 293 293 293 292 292 291 293 294 293 291 289 289 289 290 291 291 291 292 292 290 293 293 292 299 299 299 300 301 300 300 301 300 300 300 300 300 298 297 297 298 298 298 300 298 300 300 299 299 299 296 294 291 293 294 296 297 299 300 300 299 298 297
309 308 307 308 308 308 308 307 307 306 307 308 306 305 303 302 300 300 300 300 300 297 295 295 294 294 292 291 290 289 290 290 290 289 289 289 290 291 291 292 293 293 292 295 297 299 300 298 298 299 299 299 300 300 299 300 300 300 299 300 299 299 299 300 299 298 297 298 299 299 298 300 296 296 295 295 295 295 297 295 299 299 298 298 297
307 301 297 304 310 309 309 308 307 307 306 308 307 304 303 301 299 300 299 298 297 297 297 299 296 291 293 290 289 289 290 289 289 289 290 290 291 291 291 297 298 298 294 296 296 299 298 298 298 298 299 298 297 297 298 298 298 298 298 298 298 299 299 298 298 298 298 298 299 299 298 298 300 297 296 294 293 293 293 297 299 298 298 299 298
306 305 306 306 307 306 306 305 305 306 305 305 306 304 303 301 300 300 298 299 298 298 297 299 300 293 292 293 292 290 290 289 289 289 290 290 291 291 294 295 298 297 298 300 300 299 298 298 298 298 299 298 300 300 300 300 299 299 299 299 298 298 298 298 296 297 298 299 298 298 299 300 300 298 300 298 296 295 295 295 297 298 299 299 298
305 305 305 305 305 305 305 305 305 305 301 302 305 305 303 303 301 299 299 299 298 299 299 299 298 299 295 297 295 290 289 289 290 291 291 291 291 292 296 298 298 298 296 299 300 298 298 298 299 299 299 298 299 299 301 301 301 301 299 299 299 299 299 298 298 295 297 296 297 298 298 299 300 299 299 296 293 295 294 294 295 292 294 293 292
306 305 305 306 306 305 304 304 303 298 302 305 305 304 302 302 301 300 300 298 298 297 297 297 295 295 295 299 301 300 298 293 291 292 293 293 292 294 296 296 298 297 298 298 299 298 298 298 300 301 299 300 300 299 299 298 299 299 300 299 298 296 293 296 294 299 297 296 294 295 294 296 299 298 293 292 292 291 291 290 294 293 292 291 292
305 297 293 294 296 303 303 302 300 302 303 304 303 302 299 300 300 300 299 299 299 298 296 297 297 296 296 298 301 302 299 299 298 296 297 297 297 298 297 298 299 297 298 298 299 297 298 297 298 299 300 299 298 297 297 297 297 297 298 298 298 298 297 296 296 296 294 294 293 293 293 293 294 295 293 292 292 292 294 293 292 294 292 292 294
304 303 298 293 299 300 301 300 302 302 301 303 302 301 300 300 300 299 299 298 298 297 297 297 296 296 297 300 300 302 299 298 297 297 296 296 296 297 297 296 297 297 296 296 297 297 297 297 298 298 298 298 298 297 297 297 297 296 297 296 294 292 295 296 294 293 291 291 292 292 291 291 292 292 291 292 291 293 292 291 290 290 292 296 295
303 301 296 295 296 301 301 300 301 302 302 301 302 302 300 300 300 299 299 298 298 297 297 297 297 297 300 290 290 294 300 297 297 297 297 296 296 296 297 297 297 297 297 296 297 296 297 297 297 297 297 297 297 297 297 297 297 296 295 294 294 293 294 296 296 294 293 291 291 291 291 291 290 291 290 290 291 291 290 290 290 290 290 290 293
302 300 300 299 298 298 301 299 301 302 301 303 302 301 300 300 301 299 298 299 296 296 297 297 297 297 292 288 289 289 297 297 297 296 297 297 297 298 298 298 298 298 297 297 297 297 296 296 296 296 297 297 297 297 296 297 296 296 295 294 294 293 291 291 291 292 292 291 290 290 290 290 291 291 291 292 289 290 290 290 290 290 291 290 290
302 301 300 297 298 298 298 299 300 301 301 302 302 298 299 300 300 300 298 297 296 297 296 297 297 298 296 289 290 287 295 297 294 296 297 296 296 297 298 297 298 299 298 299 299 298 296 296 297 297 296 296 297 296 296 296 296 295 295 294 293 293 293 292 291 291 291 291 291 290 290 290 290 290 290 290 290 290 289 290 290 291 290 291 290
301 300 298 297 297 298 298 300 300 301 301 299 299 300 301 301 301 299 299 298 298 297 297 297 297 297 298 293 290 292 297 297 297 296 295 294 295 296 297 297 298 298 297 298 297 297 297 296 295 296 296 296 296 296 296 296 296 295 294 293 290 290 292 291 290 291 291 290 290 289 289 289 289 289 289 289 290 290 290 290 289 289 289 291 291
298 297 297 297 297 298 298 299 300 301 298 299 300 301 300 300 299 299 298 298 297 298 297 296 296 297 295 297 297 296 298 297 295 295 295 295 295 295 296 296 296 296 296 296 297 297 296 296 296 295 294 295 295 295 295 295 296 294 294 293 290 289 288 288 290 291 292 292 290 290 289 289 289 289 289 289 288 289 289 289 289 288 289 290 290
296 296 295 296 296 296 298 299 298 300 300 300 300 300 300 301 300 299 298 299 298 298 298 297 296 296 295 296 296 294 295 297 297 296 295 295 294 296 295 295 295 296 296 295 296 296 296 296 294 293 293 294 294 294 294 294 294 293 293 290 289 287 287 286 288 290 291 291 290 290 290 289 289 289 289 289 289 289 289 289 289 289 289 289 290
297 296 297 296 297 297 297 299 299 299 300 299 300 299 300 300 300 298 296 297 297 297 298 297 297 296 297 297 296 295 295 297 296 295 296 296 294 294 294 294 294 294 294 295 296 295 296 295 294 294 294 294 294 294 293 293 292 292 289 287 286 285 285 284 286 290 291 290 290 290 290 290 289 289 289 289 288 289 288 289 289 289 289 289 289
298 298 298 297 298 298 299 299 299 295 298 298 298 298 298 299 299 298 298 298 298 297 298 298 298 297 296 297 296 296 295 294 295 297 293 293 293 293 293 293 293 293 293 293 294 294 293 294 294 294 293 293 292 293 293 293 292 291 288 286 285 284 284 284 285 287 287 287 289 291 291 291 291 291 290 291 290 288 288 288 288 288 289 289 289
299 299 299 298 298 298 298 299 297 298 298 298 298 298 298 298 298 299 300 298 297 297 298 297 297 297 296 296 296 295 295 294 294 293 293 292 292 293 294 293 293 293 292 291 292 293 294 293 293 293 294 293 292 292 292 292 291 289 287 285 284 283 283 283 284 285 284 286 288 289 290 291 291 291 292 292 290 290 289 289 288 288 288 289 289
300 299 299 298 298 298 298 298 298 299 298 298 298 298 298 298 298 298 299 299 300 298 297 297 297 296 296 295 294 295 294 296 295 294 293 292 292 292 292 292 292 292 292 292 292 292 292 293 294 293 293 292 291 291 291 288 286 285 285 284 282 282 282 282 283 283 284 284 285 287 288 290 291 292 292 294 293 291 290 289 289 288 288 289 289
299 298 298 298 297 297 298 298 298 298 298 298 298 298 297 298 298 298 300 300 297 296 297 297 298 297 297 296 294 294 295 297 295 295 294 293 292 292 293 292 291 292 292 292 292 291 292 292 291 291 291 289 290 290 289 284 284 283 283 282 281 281 281 281 282 282 283 283 284 285 286 288 290 290 291 292 293 294 290 289 289 289 288 288 288
Wind_Speed
5 2 6 7 10 9 8 7 7 7 7 6 6 7 8 7 4 5 7 7 8 7 6 9 6 3 6 7 9 10 8 6 6 4 5 4 5 7 8 8 7 8 9 9 8 9 10 9 8 7 6 10 10 6 5 5 5 5 5 4 5 3 3 3 3 2 2 2 3 3 6 7 4 7 11 7 6 4 2 10 10 7 8 7 6
9 8 8 8 9 9 8 7 7 6 5 5 5 6 8 8 4 5 6 8 7 9 10 8 8 8 8 8 8 9 11 9 8 4 4 4 7 7 7 6 7 7 7 10 10 7 9 8 8 7 7 7 10 9 6 6 6 5 5 5 5 6 6 4 4 3 3 0 2 2 4 4 5 4 9 9 7 6 5 9 8 9 9 9 7
6 9 10 9 9 9 8 8 8 7 7 5 6 6 5 7 8 6 6 6 7 7 8 9 10 11 10 9 8 7 9 11 9 6 6 7 6 7 6 5 5 8 7 7 9 8 9 7 9 8 7 5 6 9 8 7 7 6 6 5 4 6 5 5 3 4 3 2 3 3 3 3 3 4 7 9 9 9 8 9 9 6 10 9 8
7 7 6 8 8 9 9 9 8 9 10 6 7 7 7 7 7 8 9 7 8 7 9 10 10 10 11 10 11 9 8 8 10 9 8 5 6 5 10 7 6 6 6 7 7 7 8 9 8 8 6 4 7 7 9 8 6 5 6 5 5 5 4 6 5 1 1 3 5 5 5 4 3 0 2 6 7 4 1 2 1 2 11 9 9
6 6 6 7 8 9 9 8 8 7 8 6 6 6 6 6 6 8 9 9 8 7 8 8 8 8 8 10 12 13 9 8 10 10 11 10 11 9 10 9 7 7 7 6 7 8 8 9 10 6 8 8 7 9 8 7 6 5 4 3 5 3 3 5 4 3 0 1 1 0 4 5 4 5 3 2 6 3 3 3 2 3 10 10 8
6 7 7 7 7 8 7 5 7 8 7 6 6 6 5 5 7 7 8 9 9 8 9 8 6 9 11 11 10 12 11 9 7 6 6 6 7 7 9 10 9 8 6 8 8 7 8 9 9 7 8 10 7 9 4 4 9 5 3 4 3 3 3 4 3 3 3 1 1 0 1 2 3 3 5 2 3 3 4 5 3 3 10 7 7
6 6 5 6 6 8 8 5 6 7 6 7 8 8 8 7 9 10 8 9 10 10 9 10 10 10 10 10 11 11 11 8 4 5 4 5 5 7 7 8 8 7 6 6 7 7 8 8 9 8 10 9 10 9 8 9 9 3 4 7 4 4 4 4 4 3 3 2 2 2 1 2 3 3 3 4 3 2 1 1 6 4 6 11 8
7 8 6 5 6 8 6 4 6 7 7 7 7 7 9 10 8 8 9 10 10 10 11 11 10 10 10 10 10 9 8 8 6 6 4 5 5 6 7 8 8 8 8 7 6 7 7 8 6 6 7 7 5 3 6 9 6 8 7 6 5 2 6 4 4 4 3 2 2 3 2 2 4 3 1 4 3 1 1 1 1 4 4 3 10
6 6 7 8 7 7 6 5 5 7 8 7 7 8 9 8 8 10 9 9 8 9 10 11 12 12 12 11 12 11 9 5 2 4 5 5 6 7 7 8 8 8 8 8 6 5 6 6 6 5 7 9 11 6 5 6 6 6 5 5 3 4 3 3 3 2 3 3 3 2 3 3 4 6 3 2 4 6 4 2 2 4 4 3 4
4 6 7 7 7 9 8 7 8 7 7 8 8 8 9 8 9 9 9 9 9 9 9 10 11 11 12 12 10 9 8 2 4 5 4 4 6 6 7 7 8 8 8 9 7 3 2 2 3 9 10 12 10 7 6 5 5 7 5 2 1 5 4 4 1 2 2 4 4 4 4 3 4 5 6 4 3 2 1 2 3 1 4 4 2
7 6 8 8 9 8 8 9 9 9 7 8 8 10 10 8 8 8 8 9 9 9 9 10 10 10 12 11 10 8 8 3 5 5 5 6 5 6 7 8 8 8 8 8 8 6 4 2 1 4 2 3 4 6 7 7 8 11 11 9 6 3 2 5 4 2 0 3 3 4 4 3 4 5 7 7 5 4 3 0 2 0 1 4 4
7 7 7 8 9 9 8 9 9 8 9 10 10 10 10 10 10 9 9 9 9 9 9 10 10 10 9 10 9 8 7 2 3 4 5 5 4 5 6 7 7 7 7 8 7 7 5 4 3 2 2 0 4 5 6 8 8 8 10 11 10 10 8 5 3 2 3 2 3 3 2 4 3 4 3 6 6 5 4 2 1 1 2 3 4
10 10 9 9 10 8 9 9 9 8 8 9 9 9 10 11 11 11 11 9 8 10 10 10 10 10 9 10 10 8 8 4 4 4 6 6 4 5 5 6 7 7 7 8 8 7 7 5 6 5 3 3 1 2 4 5 6 8 8 9 9 9 9 10 7 4 3 3 1 2 3 3 2 4 5 6 7 7 5 4 0 1 3 4 1
8 10 10 10 10 10 9 10 10 10 9 8 8 9 9 9 9 9 9 9 9 10 10 10 10 9 10 10 9 7 8 3 4 4 5 6 7 6 7 6 7 6 7 7 7 7 6 6 5 5 6 5 3 3 3 4 4 4 3 3 5 7 7 8 7 6 4 2 1 2 4 5 5 4 0 8 9 8 7 5 2 3 3 3 4
9 8 9 9 9 9 10 9 9 9 9 9 9 9 9 8 10 9 8 9 9 10 10 10 10 8 9 10 10 9 7 2 1 2 6 7 11 9 6 7 7 7 6 7 6 5 6 7 7 6 6 7 6 4 4 5 4 3 3 3 3 2 3 3 3 2 2 2 0 1 3 4 4 6 4 3 8 7 8 7 5 5 2 5 4
9 8 8 9 9 8 9 9 8 8 8 8 9 9 10 10 10 9 8 8 8 8 9 10 9 9 9 10 10 9 10 9 9 9 8 9 11 7 8 8 8 8 8 6 5 5 6 7 7 7 7 6 9 12 10 5 5 5 5 4 3 2 1 3 6 5 5 5 5 4 2 3 1 5 5 3 4 6 6 6 1 3 6 6 5
9 9 9 8 8 9 8 9 9 9 9 9 10 9 9 10 9 8 9 9 9 9 9 9 9 9 10 10 10 9 8 7 6 4 4 8 7 7 7 7 7 8 8 7 7 5 4 6 7 8 8 9 10 13 14 13 8 8 6 5 4 5 5 2 5 8 9 10 8 6 3 3 7 7 8 10 5 5 5 5 5 3 6 6 4
10 9 9 9 8 8 8 8 8 8 8 9 9 8 8 7 8 8 9 9 9 9 8 9 9 10 10 10 9 9 7 3 1 1 6 9 7 7 6 7 8 8 8 6 6 7 7 10 7 6 8 9 11 16 16 13 9 9 8 8 8 8 6 4 3 4 6 6 6 6 4 0 2 2 5 5 8 5 4 4 4 3 3 1 2
9 9 8 7 7 6 5 7 8 8 10 9 8 8 8 7 7 6 8 9 9 8 8 9 9 9 9 8 11 8 2 2 4 7 7 7 7 5 6 6 7 8 9 8 8 6 5 4 6 6 5 8 12 15 17 16 11 11 11 10 10 9 8 8 8 6 4 3 1 3 1 2 2 2 3 0 5 3 4 3 3 4 0 3 6
7 9 9 7 5 6 5 5 5 6 9 9 8 8 8 7 6 6 7 8 9 8 8 8 9 8 8 8 6 4 4 6 2 4 6 7 6 5 6 7 7 9 9 9 9 7 5 6 5 5 9 7 6 10 15 17 10 9 9 10 10 10 8 9 9 8 7 6 5 5 5 5 4 3 3 2 1 1 4 3 3 3 1 5 7
6 6 7 7 8 7 6 5 5 5 7 7 7 8 8 8 8 7 6 6 7 8 8 8 7 7 8 7 5 6 5 1 2 4 8 7 6 4 5 6 7 7 8 9 8 8 8 7 4 5 6 6 5 5 10 13 14 10 11 10 8 8 9 8 9 12 7 7 5 4 4 4 4 3 3 2 3 2 2 3 2 1 1 4 4
5 5 6 8 7 6 5 3 3 5 6 6 6 7 7 8 8 8 7 6 6 7 7 7 6 6 7 7 5 4 3 1 1 5 5 6 6 4 4 5 5 6 7 8 7 8 8 8 8 6 5 4 4 4 5 7 9 6 5 10 13 13 7 6 6 5 6 5 5 4 3 3 4 4 4 3 2 3 2 2 2 0 1 3 3
6 6 6 5 4 5 5 4 4 4 6 7 8 8 8 8 7 9 8 6 6 6 8 7 5 7 8 7 4 5 1 1 1 3 3 5 8 7 7 6 8 5 6 7 7 7 6 7 8 9 5 4 3 3 5 7 4 5 11 12 12 13 8 5 4 5 5 5 5 5 5 5 5 4 5 4 4 3 3 3 1 1 1 1 5
6 5 3 4 3 3 5 5 5 5 6 6 7 9 9 7 6 7 7 5 4 5 6 7 7 8 9 9 7 5 4 1 1 4 3 7 9 8 10 10 6 5 5 6 6 6 6 6 7 10 6 4 3 3 4 5 0 8 10 11 11 8 6 6 3 5 5 5 5 5 5 5 5 5 6 5 5 6 5 3 3 2 3 1 6
5 4 5 5 2 2 3 4 5 6 7 7 8 7 8 7 7 6 6 7 5 2 3 5 6 7 8 9 9 7 6 3 0 2 4 9 10 11 12 11 9 5 5 6 6 6 6 8 8 6 5 3 2 1 0 1 5 4 8 10 8 5 5 6 4 5 5 4 2 2 5 7 5 4 7 8 6 7 4 3 4 3 4 1 6
5 5 6 4 3 4 4 5 7 7 6 5 7 8 9 9 7 4 6 7 6 3 4 5 5 7 8 8 8 8 6 5 4 4 5 7 8 10 12 11 10 10 9 7 9 11 10 8 7 4 3 2 0 1 1 2 5 5 5 4 3 5 5 5 4 5 5 3 3 1 1 0 0 1 1 3 7 7 6 6 5 5 5 5 6
7 6 6 5 3 3 5 5 5 6 6 6 7 8 9 8 7 4 6 7 5 6 4 5 5 7 7 7 8 8 7 7 3 4 5 5 6 7 7 8 9 9 8 8 10 9 8 5 3 2 3 2 1 0 2 5 5 3 2 1 2 2 3 6 5 5 3 3 3 3 5 6 3 4 3 3 9 9 8 7 6 5 5 5 6
6 7 7 6 5 5 6 7 8 7 7 7 6 6 7 9 9 6 5 5 6 6 6 5 5 5 6 6 7 7 7 7 3 4 5 5 5 5 6 6 6 6 6 7 8 9 9 3 3 1 0 1 2 2 2 2 0 2 3 2 1 1 3 5 6 4 3 2 1 2 4 1 0 1 2 3 1 8 7 6 6 6 5 6 5
6 6 7 6 6 5 4 5 7 8 8 7 5 5 6 7 9 8 7 4 1 4 7 5 4 4 6 7 6 6 7 6 2 1 2 2 4 5 5 5 5 5 6 9 8 8 7 5 3 3 2 3 2 2 3 3 3 2 3 3 4 3 3 5 6 5 5 4 4 3 4 2 0 1 1 2 2 3 6 6 5 6 6 6 6
6 7 7 6 4 3 4 5 7 7 7 8 9 5 6 4 7 11 9 6 4 6 7 5 6 5 6 7 5 6 6 3 3 1 2 5 7 8 10 11 9 7 10 14 8 6 7 6 3 3 3 3 3 3 3 4 4 5 5 4 4 4 4 3 5 5 5 6 7 4 5 3 1 2 2 1 3 2 2 7 6 6 7 6 7
5 6 5 4 4 4 4 4 3 7 7 7 7 6 4 5 10 17 16 10 5 5 8 11 13 12 10 8 9 8 1 4 3 1 5 8 9 11 13 13 10 8 7 6 5 5 5 4 4 2 3 3 2 2 3 3 3 4 5 5 4 5 4 4 4 4 4 6 7 4 6 5 2 2 3 3 3 3 4 2 3 5 7 7 6
5 5 5 5 4 5 1 4 2 1 6 8 8 7 5 6 8 7 6 4 4 7 11 13 14 14 16 12 8 7 3 5 2 8 9 9 10 12 15 15 13 10 7 2 2 5 7 5 4 1 1 1 2 3 3 4 4 4 5 5 5 4 6 5 4 5 6 6 6 4 6 7 8 7 6 6 6 5 5 5 4 4 5 5 6
8 7 7 7 7 6 2 3 4 7 7 6 7 5 4 5 5 6 5 7 9 9 11 12 14 14 17 15 11 9 8 8 10 10 9 9 10 13 14 16 15 10 1 2 3 5 7 6 3 2 1 1 2 3 2 3 4 5 5 6 6 6 6 7 5 5 4 4 4 3 4 5 6 7 5 5 6 4 6 6 5 5 5 6 6
11 10 8 6 5 4 4 5 6 6 6 7 7 5 5 5 5 5 6 4 5 7 6 10 14 17 13 6 8 9 8 7 9 10 9 10 11 12 10 11 18 15 6 6 4 5 6 6 2 1 2 1 0 0 1 2 1 4 4 5 6 6 7 8 8 7 5 4 5 5 3 4 4 6 5 5 4 3 3 3 4 7 7 5 5
10 11 14 4 3 5 4 5 6 7 8 5 4 5 5 5 5 5 5 5 6 6 6 7 7 2 4 5 8 10 7 8 10 11 10 10 12 9 8 8 8 1 2 3 4 5 3 4 5 5 2 1 2 1 1 1 1 1 2 3 4 5 7 7 8 8 7 6 6 6 5 6 5 5 6 7 6 6 6 5 5 4 5 3 4
10 10 9 7 6 7 8 8 7 7 7 7 5 4 3 4 4 5 4 5 5 6 7 7 7 6 9 7 10 8 8 11 12 11 10 11 10 2 4 5 6 5 3 1 1 3 4 4 4 4 4 5 3 0 1 1 1 1 2 1 1 5 6 6 6 7 8 9 9 8 7 7 7 7 7 8 9 9 8 7 7 6 5 6 6
9 9 7 7 7 7 8 9 9 7 5 3 3 3 4 5 5 5 5 5 5 6 7 6 6 2 3 6 6 8 11 9 11 11 10 11 9 3 5 6 7 6 3 2 0 1 2 3 2 2 3 3 4 4 3 1 0 0 1 1 2 2 2 1 4 5 6 5 5 6 6 7 6 6 7 7 6 8 9 9 8 7 8 5 5
7 7 8 5 4 7 8 8 8 7 5 4 5 6 6 6 6 5 5 6 7 6 6 6 6 8 8 6 10 7 7 9 9 8 9 10 8 7 7 8 8 4 2 2 2 2 2 4 2 2 2 2 3 3 4 4 3 2 0 0 0 2 4 1 1 1 3 3 3 4 4 5 6 6 4 4 4 4 4 5 7 5 4 5 4
6 10 10 7 10 10 8 8 7 7 6 6 7 7 6 5 4 4 5 6 6 4 5 5 6 7 8 5 5 6 6 3 4 5 6 5 3 4 4 2 2 3 3 3 2 2 3 4 4 3 2 3 4 5 5 5 4 5 4 2 1 1 1 2 0 1 0 2 3 4 5 4 5 6 4 3 3 3 1 1 1 1 2 2 2
8 8 10 15 12 10 9 7 8 8 6 5 6 7 7 6 6 6 6 6 6 6 5 6 7 9 8 4 2 1 2 3 3 4 5 6 4 3 4 4 3 3 4 5 4 4 4 5 6 5 4 3 4 3 3 4 4 5 4 3 3 2 2 1 3 3 3 2 1 0 0 2 5 4 4 4 4 3 3 2 3 4 4 1 1
7 8 9 11 12 11 10 7 7 7 7 7 6 7 7 6 5 4 5 5 6 6 6 7 8 9 2 5 5 4 0 3 4 4 5 6 5 3 3 4 3 3 4 5 6 5 4 4 5 6 5 5 3 2 2 3 3 3 4 3 1 0 1 2 0 1 3 3 2 2 2 0 3 1 3 4 4 4 3 2 3 6 5 3 4
8 8 10 10 12 11 11 10 9 9 7 7 7 6 7 4 1 3 4 6 5 6 7 8 7 2 5 4 6 4 2 3 3 5 5 6 5 2 2 1 2 2 3 2 3 4 4 3 4 5 6 6 6 4 4 4 3 4 2 2 2 0 0 1 2 2 1 2 3 3 2 2 1 0 1 3 3 4 4 4 4 4 6 6 5
8 8 10 9 12 13 12 12 11 9 7 6 6 6 5 4 4 4 5 5 6 7 8 8 6 4 4 6 7 5 4 3 4 6 6 5 3 2 2 2 2 1 2 2 2 3 4 3 2 2 4 5 6 6 6 5 6 5 5 5 3 2 1 1 1 2 2 2 1 1 1 2 1 1 2 2 2 3 4 5 6 5 6 6 5
9 10 10 12 13 12 11 11 10 9 8 7 4 3 4 5 5 6 7 7 7 7 8 7 4 5 2 5 5 5 5 4 4 3 4 5 6 4 2 2 2 2 2 2 3 3 3 4 4 3 3 3 4 5 6 6 6 6 6 5 4 4 3 3 4 3 2 2 3 3 2 2 2 2 2 3 4 4 4 4 4 4 4 6 5
10 12 12 12 12 11 12 11 10 9 9 8 6 4 3 5 6 7 7 7 8 8 8 6 5 4 6 5 7 6 6 6 1 2 3 4 4 5 5 3 3 4 3 3 2 2 3 4 4 2 2 2 4 5 5 4 4 6 4 5 5 5 4 4 5 6 5 4 3 1 2 3 4 3 4 3 4 5 5 5 6 6 5 5 5
11 12 11 11 11 11 11 11 10 10 9 9 7 6 5 6 6 7 8 8 7 8 8 7 5 5 5 5 5 6 5 2 2 2 2 3 4 2 2 4 3 3 2 2 1 1 1 2 3 2 2 3 3 4 4 4 5 5 5 6 6 5 5 5 6 6 5 5 5 5 4 2 3 4 5 4 4 4 4 4 4 4 4 4 5
11 11 11 10 11 11 11 10 9 9 10 10 9 7 5 6 7 7 7 7 8 9 9 8 5 5 3 2 4 7 5 1 1 2 2 2 5 5 4 4 4 4 3 2 1 1 2 2 2 2 3 2 1 1 2 3 3 4 5 5 5 6 6 6 6 6 6 6 5 3 4 4 4 3 4 4 4 4 5 5 4 4 4 4 4
10 10 10 10 10 10 10 11 11 10 10 10 9 9 6 5 6 7 8 8 8 8 7 7 7 6 5 4 5 7 6 5 3 1 4 3 3 4 5 5 4 4 3 3 2 0 0 1 2 2 2 3 2 2 1 1 1 3 5 5 5 5 7 9 6 6 7 7 6 6 5 5 5 4 4 5 5 4 5 5 4 4 3 3 3
10 10 10 11 10 10 10 10 10 11 11 10 11 10 9 7 6 7 6 6 10 10 7 6 6 6 4 4 4 3 3 1 4 3 2 2 3 1 1 3 3 3 2 3 3 3 1 0 1 1 1 1 2 3 3 2 3 6 5 4 5 8 9 10 7 6 8 7 6 6 6 6 6 6 5 6 6 5 5 4 4 5 4 4 5
10 10 10 10 11 11 11 11 11 11 11 11 12 11 10 9 9 8 8 4 6 8 10 7 6 7 6 5 5 5 3 2 1 3 3 3 3 2 3 4 4 3 2 2 3 2 2 2 2 1 2 3 2 2 3 6 6 5 4 5 7 8 9 10 8 8 8 6 7 6 7 7 7 6 6 5 6 6 5 6 6 5 5 5 5
9 10 11 12 12 12 12 12 12 11 12 12 13 12 11 11 12 10 7 4 6 9 10 9 7 6 4 5 5 3 2 2 2 1 2 3 2 1 0 2 2 2 2 2 1 2 2 2 2 1 2 1 1 2 3 7 5 4 4 8 9 8 9 10 8 10 12 9 6 6 6 7 7 7 6 5 4 4 6 6 6 5 6 5 5
Wind_Direction
336 0 17 5 346 346 338 340 333 348 347 347 339 337 328 316 314 325 318 314 312 311 318 304 304 325 325 323 318 314 311 310 308 298 267 254 256 260 259 270 276 275 269 260 253 234 231 235 242 237 213 234 253 238 233 227 229 224 247 218 191 188 164 172 208 259 303 114 97 82 127 124 136 129 136 144 154 196 148 123 143 170 147 129 114
353 7 18 6 341 340 339 333 341 332 346 344 349 328 310 305 322 333 319 311 319 328 320 325 334 339 335 319 316 319 319 314 311 311 297 253 249 255 273 269 266 270 278 284 275 262 257 249 269 282 271 238 262 248 222 228 225 215 224 236 189 186 170 177 196 218 210 329 89 119 107 141 137 141 129 154 164 161 164 155 167 195 129 126 124
25 3 359 353 341 339 341 337 334 334 347 337 314 303 310 337 334 326 318 326 323 319 339 339 338 336 327 317 313 316 317 320 319 312 280 284 302 302 277 266 271 282 279 264 262 261 253 232 238 247 265 273 264 271 257 224 226 218 211 225 214 183 176 179 181 193 209 198 180 161 170 128 156 158 161 156 166 165 173 179 176 184 116 132 125
10 12 355 343 344 344 343 335 336 351 332 326 327 344 346 332 328 332 330 321 331 344 336 333 334 327 315 316 317 311 312 317 317 319 317 305 285 312 296 293 294 292 293 296 278 270 273 265 242 233 236 256 265 249 263 271 225 229 220 203 222 188 181 162 183 165 195 176 194 193 147 124 145 136 284 165 161 161 177 88 113 142 114 122 125
356 357 358 356 353 346 333 338 333 328 312 325 329 336 334 332 333 335 324 325 332 329 327 320 310 308 316 327 322 316 321 328 323 345 354 352 353 335 310 299 293 287 285 279 281 279 272 265 258 236 228 242 257 276 238 265 280 242 243 218 196 203 167 147 153 149 141 299 296 105 144 161 165 151 212 130 127 139 162 157 165 112 123 127 125
1 358 6 357 350 329 317 317 317 311 317 324 327 326 322 328 330 315 322 326 327 323 312 307 315 337 332 325 322 318 323 323 345 12 348 345 335 322 312 310 299 287 283 280 276 271 266 260 246 223 220 227 232 247 243 231 267 257 244 266 205 168 139 121 114 129 151 230 305 294 68 110 126 130 182 170 108 140 155 154 139 113 101 121 119
356 357 351 337 332 314 306 323 331 331 334 340 338 336 339 335 328 331 336 336 326 323 333 341 341 339 327 324 323 315 310 314 24 359 351 329 316 310 301 291 284 289 291 282 276 274 269 264 259 236 228 225 225 236 216 206 229 267 330 294 249 159 147 136 139 143 150 171 242 262 159 134 123 135 102 85 104 120 161 144 159 174 156 145 148
355 338 339 331 325 318 319 352 351 337 339 340 340 338 339 334 339 340 338 329 322 335 343 339 334 328 323 316 314 312 320 348 26 357 328 321 316 317 318 314 312 306 296 288 287 293 291 276 254 235 229 230 230 268 242 201 199 196 196 264 287 157 149 145 140 153 160 175 210 199 225 163 139 111 119 154 111 61 286 194 165 145 168 175 151
340 331 339 334 329 324 334 359 359 343 335 336 343 342 333 333 341 337 327 323 336 343 341 336 332 325 328 332 329 332 334 5 21 328 328 325 325 319 319 315 312 308 303 298 293 294 281 259 248 232 224 226 224 211 238 226 198 172 201 253 233 58 64 93 128 153 164 169 203 249 193 190 167 157 167 94 140 170 201 214 200 135 154 164 109
331 336 334 335 334 339 347 356 349 334 329 347 339 335 331 333 334 325 330 341 339 337 336 331 322 322 325 323 322 322 328 330 348 345 333 330 315 312 315 314 312 309 306 303 299 286 290 285 277 250 219 223 207 147 147 151 135 146 152 120 85 133 161 186 136 129 196 183 193 193 228 199 172 155 167 173 147 129 85 167 214 138 136 174 160
336 345 336 342 340 345 1 348 332 331 353 339 338 333 334 334 330 330 343 340 334 335 331 321 327 329 321 319 319 320 324 6 354 313 330 344 319 314 315 312 307 304 305 306 304 296 258 262 307 349 309 183 115 125 116 116 118 109 91 78 59 68 99 121 152 225 174 252 192 177 197 209 186 165 171 170 161 137 163 177 174 174 146 167 171
336 337 347 343 343 347 352 337 333 349 347 341 338 343 340 337 333 338 339 333 333 328 324 327 322 317 313 312 315 315 316 113 309 295 316 308 301 309 306 304 307 306 306 304 299 295 265 237 247 249 288 266 142 110 105 104 97 93 104 99 83 69 68 89 124 80 65 47 1 287 200 202 203 177 175 138 153 136 142 148 153 240 252 232 175
340 340 347 349 347 348 340 334 335 339 348 0 358 347 342 335 342 340 333 331 328 330 323 317 315 314 313 313 309 311 319 200 280 290 289 295 310 306 295 300 298 301 300 300 297 295 284 241 231 234 216 261 217 153 134 117 107 111 104 110 110 106 93 80 74 108 127 92 45 339 347 336 268 216 171 140 143 143 130 129 19 308 276 289 20
344 345 348 350 348 334 344 346 344 345 346 346 343 338 330 333 333 329 326 326 327 320 317 313 310 310 311 310 311 316 319 274 234 271 307 332 324 311 288 287 283 279 286 287 290 286 282 262 237 217 230 223 208 189 157 132 136 124 126 118 119 118 123 131 133 134 132 126 96 323 355 20 341 349 129 137 142 145 141 134 177 224 245 108 120
344 349 351 351 343 342 343 346 341 345 346 348 346 336 335 333 330 325 324 323 321 318 316 313 310 312 319 323 325 321 319 340 269 22 10 352 337 317 292 305 304 288 268 265 264 265 254 250 241 225 213 220 215 195 174 166 158 154 137 139 117 126 137 138 141 150 122 110 83 43 36 18 354 336 350 114 137 138 144 153 186 226 160 136 102
344 351 348 342 338 338 338 342 340 338 338 338 334 337 340 333 325 323 322 317 313 314 313 310 314 321 323 324 320 324 331 36 48 32 2 351 335 318 322 312 303 301 298 275 257 241 244 243 248 239 229 222 215 202 212 177 183 179 180 176 171 195 187 140 117 100 102 96 87 76 43 34 10 360 322 44 112 122 135 114 90 227 163 159 155
344 343 344 341 341 344 351 348 350 352 351 342 339 338 330 325 323 323 317 313 312 312 312 310 318 323 322 320 322 324 342 68 59 46 6 347 340 327 318 311 303 306 304 315 318 289 249 244 252 253 241 230 218 202 198 182 185 188 191 188 192 206 224 165 108 98 92 94 100 110 87 14 25 14 349 51 73 97 116 135 190 222 177 202 170
343 348 353 350 342 343 343 345 341 339 334 332 332 325 321 319 318 319 315 316 309 307 311 319 324 322 315 318 326 329 9 66 27 355 9 3 341 332 319 316 314 308 314 332 327 307 285 300 286 261 257 251 226 198 200 194 199 194 189 187 187 195 202 172 128 81 102 110 129 134 129 100 330 89 328 41 52 82 105 163 203 155 120 161 203
342 346 347 343 338 329 338 345 345 342 337 331 324 317 314 311 302 310 311 306 304 310 324 318 316 315 310 318 330 358 330 269 52 14 353 344 343 336 329 325 324 327 326 322 315 294 288 283 284 281 275 273 248 202 197 196 201 193 189 184 187 192 192 175 169 155 157 147 157 153 140 210 230 224 190 299 84 91 90 69 41 58 72 205 226
347 342 337 332 322 329 340 349 348 342 329 320 314 312 307 301 311 308 299 307 311 316 310 304 307 312 314 322 343 333 334 20 28 294 327 329 2 330 333 340 344 335 328 322 314 313 326 323 303 285 284 299 300 225 207 208 203 193 186 193 186 189 172 170 178 170 171 175 177 187 190 185 187 216 182 184 141 148 108 93 54 73 18 293 250
341 340 325 324 333 341 333 328 328 321 307 300 305 304 311 312 309 296 295 301 303 304 306 304 308 318 319 321 334 329 42 97 257 291 303 330 346 351 326 342 337 328 325 320 320 323 330 326 327 314 303 297 283 242 226 214 213 201 191 197 192 154 140 152 171 171 168 171 176 170 189 184 180 188 200 183 157 180 131 125 153 137 329 300 348
331 314 312 332 344 332 320 318 316 300 292 298 301 303 306 306 299 305 301 292 293 300 307 306 314 327 317 320 340 358 96 45 143 278 287 317 327 325 317 327 333 318 313 324 323 323 323 332 326 329 319 292 277 254 231 236 247 266 153 121 113 118 119 138 160 157 153 153 158 168 186 197 188 183 184 185 186 170 147 135 137 173 246 300 38
293 295 304 321 316 322 318 311 286 282 283 291 298 296 294 289 296 300 297 298 306 318 317 316 337 332 322 317 332 338 16 189 140 312 348 334 330 307 290 288 316 293 306 319 320 313 324 344 347 354 328 304 276 237 202 197 193 125 127 116 111 110 111 99 131 157 156 161 164 186 194 195 193 189 184 190 191 174 175 157 156 194 256 33 64
284 290 289 279 296 304 302 305 297 278 282 292 291 287 282 282 288 289 286 292 306 321 321 333 340 335 329 322 328 336 342 69 335 315 329 341 349 343 334 325 287 280 299 293 309 320 327 334 328 326 318 294 276 232 224 219 126 137 116 116 112 108 107 105 135 172 167 156 180 193 200 207 200 188 183 193 178 173 175 166 163 186 253 146 100
256 265 277 284 269 282 290 289 293 290 285 283 277 281 287 286 282 281 293 297 292 300 324 325 335 333 324 319 321 324 334 332 166 281 18 7 346 347 341 348 341 287 284 296 323 321 314 308 331 2 341 334 353 2 36 64 51 113 127 127 121 108 106 109 103 127 141 133 151 211 215 209 210 206 190 187 173 157 153 162 161 181 196 191 105
245 253 269 268 259 271 285 285 277 268 267 281 290 291 285 283 278 287 298 289 294 318 313 313 331 322 316 315 312 318 324 328 335 3 4 352 343 339 336 342 348 333 306 279 286 305 305 301 304 336 84 103 159 196 194 142 88 75 79 86 99 125 129 115 121 128 125 138 132 119 226 221 93 346 96 183 129 155 166 168 162 184 182 151 107
275 272 255 250 241 244 265 265 272 279 267 248 250 263 272 276 282 292 291 297 329 326 321 330 324 319 317 314 312 317 321 317 3 13 356 343 337 333 334 338 342 343 344 344 342 331 315 300 328 357 60 120 177 279 99 113 113 108 88 39 62 105 137 138 144 138 104 76 44 343 331 335 354 10 10 38 152 167 168 162 166 169 164 136 128
253 260 273 269 246 244 246 259 260 266 263 258 261 267 281 298 300 289 284 309 322 325 328 314 312 315 315 315 311 312 313 316 17 5 345 336 322 326 328 329 338 339 332 335 324 316 306 267 253 252 344 131 148 169 149 153 122 122 132 136 107 95 135 126 109 93 79 57 356 340 329 287 325 300 3 21 103 159 161 145 153 163 161 147 153
249 251 258 258 244 226 237 269 279 271 271 281 295 293 277 275 291 297 298 309 22 305 297 280 265 294 306 297 298 297 302 315 0 18 332 310 287 312 323 317 325 314 313 319 316 309 297 270 279 291 276 275 242 210 196 177 164 169 162 167 162 141 152 148 147 134 127 144 225 270 277 232 283 351 25 350 338 150 140 135 161 161 170 167 184
239 251 259 263 267 271 281 287 303 313 315 324 302 280 279 309 303 292 279 263 214 238 245 251 268 281 291 287 287 289 297 321 140 154 297 309 293 275 271 276 275 277 295 304 294 288 282 289 264 257 256 250 247 232 225 204 191 177 175 165 164 163 159 161 147 148 145 177 215 212 216 227 237 342 335 340 307 325 142 157 184 170 178 186 191
276 277 275 283 298 304 310 327 289 292 316 311 292 329 328 333 294 273 258 261 267 240 252 250 255 258 252 268 277 280 198 164 168 343 335 320 309 301 295 289 290 283 287 324 317 294 293 300 300 287 257 264 254 224 204 207 185 182 183 177 162 158 153 154 149 160 189 202 228 211 189 173 183 252 288 303 290 266 276 230 185 176 179 191 197
285 294 303 306 307 298 249 287 335 14 277 271 277 258 236 261 279 260 228 250 238 242 256 268 271 267 263 244 243 275 283 153 278 321 314 310 300 296 290 293 296 295 292 234 272 286 295 313 305 74 99 4 293 249 195 199 195 183 177 183 195 170 161 164 183 192 204 206 212 217 193 185 177 191 200 212 219 222 226 234 219 192 180 195 213
323 314 308 302 301 296 208 269 229 270 259 232 244 244 247 261 270 280 256 204 211 230 252 274 289 282 263 247 223 230 259 291 300 296 297 292 289 284 291 298 296 290 92 244 246 270 277 268 257 309 42 90 32 348 283 208 188 190 185 185 194 194 175 182 200 216 209 213 227 229 181 190 188 185 196 213 214 212 209 206 213 212 201 197 221
337 331 323 328 323 316 304 296 290 278 267 247 249 240 242 242 264 277 284 296 289 271 275 282 284 289 287 230 200 219 232 256 273 276 274 275 276 283 305 304 293 291 223 228 248 277 287 295 258 172 150 132 210 191 348 359 225 198 198 194 196 189 189 184 191 219 238 242 244 244 196 180 189 178 194 220 247 257 256 222 205 198 204 202 224
331 318 313 294 283 293 279 277 283 285 291 262 238 239 240 238 244 256 268 275 276 283 293 283 295 325 209 196 218 212 217 240 253 258 265 267 271 290 315 301 305 33 150 230 235 262 305 335 341 343 343 242 165 150 179 164 140 131 188 209 199 185 185 191 198 199 210 230 239 244 226 202 204 199 188 203 220 236 247 247 218 204 194 215 241
320 314 313 323 339 344 330 320 305 291 289 297 295 272 251 255 246 247 258 269 276 280 284 279 283 213 227 218 205 198 216 231 240 248 250 258 263 300 304 288 296 318 356 357 344 15 355 329 342 341 354 354 8 68 136 97 129 147 154 143 193 192 190 185 193 199 204 204 217 222 223 220 212 209 208 206 207 210 215 224 229 207 194 210 214
314 316 336 337 341 325 317 307 302 313 311 305 282 259 248 253 252 265 273 273 273 270 275 292 316 316 241 247 215 218 227 235 246 252 270 276 283 268 256 263 273 288 311 330 58 52 332 308 311 338 353 4 354 6 13 20 60 28 68 85 85 71 75 178 191 197 195 204 206 205 214 219 221 218 205 209 208 212 207 214 219 207 192 197 203
320 338 337 343 334 323 310 301 298 301 281 263 269 277 271 270 275 261 247 253 260 270 283 290 281 293 278 235 193 201 219 233 256 286 277 274 274 243 240 240 246 274 307 316 23 4 306 299 333 357 19 11 6 9 2 359 19 20 126 150 95 113 136 82 31 231 214 203 213 218 228 236 236 221 194 184 198 203 172 190 201 206 195 163 178
349 332 332 340 323 311 298 302 300 295 294 288 289 285 276 266 261 259 266 280 267 244 263 273 281 288 293 304 141 194 209 239 241 249 243 244 256 275 275 275 329 338 323 346 23 23 352 334 353 354 39 39 31 22 20 8 352 0 356 33 147 127 119 125 109 345 17 227 222 227 228 240 235 209 190 169 200 264 326 32 1 284 206 190 161
339 335 341 329 313 307 305 299 293 293 291 292 290 296 301 289 268 254 252 260 279 292 299 292 289 280 289 338 44 40 294 293 305 304 313 307 294 300 322 326 347 352 360 352 355 14 8 352 348 351 8 35 50 32 40 15 354 347 349 34 50 25 24 152 179 198 233 243 226 212 311 278 238 196 172 169 176 180 219 248 259 264 277 291 198
338 336 324 313 302 301 297 294 294 293 301 294 291 289 284 281 279 275 266 265 267 269 277 284 278 284 70 107 99 94 74 297 294 300 294 298 300 296 304 321 13 10 5 1 358 6 15 357 348 343 3 14 26 10 27 28 351 329 330 334 16 54 336 338 6 189 212 226 222 217 208 256 322 173 163 168 156 158 182 210 220 217 240 241 240
331 328 318 317 314 308 303 298 295 287 278 284 289 288 292 294 269 269 276 281 282 280 275 271 278 324 120 148 145 147 162 279 281 281 278 273 280 302 329 341 355 351 358 6 12 344 359 13 353 349 6 6 355 356 3 6 353 327 317 315 315 296 167 310 309 311 250 209 232 228 217 206 202 83 63 87 172 194 193 207 218 222 217 223 229
323 316 315 312 310 304 297 293 290 292 294 294 288 289 280 278 269 276 271 255 251 258 260 271 279 298 166 197 182 194 217 253 261 256 265 285 304 9 347 316 316 354 52 26 358 350 347 352 348 17 28 3 358 358 353 1 356 346 355 349 345 32 16 356 324 282 257 270 261 242 212 195 178 197 224 202 177 214 220 210 214 212 213 209 208
321 316 311 307 302 295 291 290 294 293 293 284 267 289 298 283 273 271 272 269 261 254 259 270 287 287 231 191 197 207 235 249 268 296 334 347 331 321 309 287 299 19 68 45 32 7 347 334 345 16 28 16 8 5 357 6 0 20 15 14 8 1 2 359 0 340 328 265 244 238 245 239 223 216 210 223 217 208 220 232 230 225 210 209 208
319 314 308 305 303 299 297 293 289 293 298 295 289 267 225 237 255 259 267 275 275 270 267 254 234 242 261 231 192 204 217 226 284 340 301 298 309 311 310 326 20 33 35 53 41 17 349 341 328 2 40 13 8 3 358 348 13 31 28 28 26 27 16 357 342 338 331 330 322 306 232 214 230 227 239 239 216 199 203 206 211 216 216 212 204
312 307 304 302 303 298 296 297 300 298 297 299 297 295 281 272 269 265 257 254 262 272 273 268 245 239 247 283 302 286 266 222 211 232 267 243 243 269 339 6 26 21 11 353 16 61 50 301 307 327 42 40 24 354 349 356 24 19 28 46 35 29 7 342 329 325 340 6 357 335 311 288 227 216 216 227 235 227 223 226 215 209 202 204 210
308 303 307 302 303 300 299 298 301 308 311 307 298 285 270 268 275 273 268 268 265 260 261 263 263 247 247 274 275 279 282 269 296 260 257 18 23 19 15 11 4 357 328 329 346 7 4 340 339 3 8 42 43 340 351 4 22 30 52 52 36 20 8 344 326 326 354 352 332 329 323 316 282 250 225 218 217 207 215 226 230 217 211 212 225
310 308 303 298 298 305 309 310 306 306 303 306 303 302 287 273 273 277 280 276 266 262 258 262 259 261 254 243 247 255 251 229 201 114 60 50 34 22 6 346 330 322 323 324 316 335 90 332 344 9 17 5 357 359 324 35 25 71 70 58 37 17 1 355 336 349 351 330 320 322 320 308 296 272 234 224 219 204 198 211 225 248 246 231 221
309 302 298 304 311 313 314 321 320 317 315 314 309 306 306 294 280 275 267 262 266 268 269 261 271 276 263 242 238 262 308 339 88 86 109 88 66 36 327 291 292 289 288 287 289 293 275 259 24 18 331 9 9 346 342 330 30 63 60 53 32 18 6 357 346 354 336 325 325 323 316 311 305 302 282 236 221 207 206 205 199 212 228 250 250
300 303 316 330 336 336 331 324 324 324 324 322 320 318 315 312 308 300 293 321 349 315 290 264 239 237 231 238 227 213 217 252 112 109 96 112 139 171 210 236 244 244 252 269 294 309 336 349 309 343 40 52 16 340 332 56 58 47 33 40 30 15 6 357 349 350 344 336 322 309 306 298 297 288 290 265 222 203 199 198 201 198 202 202 200
317 332 339 338 334 330 330 331 330 329 327 325 325 319 320 321 316 312 306 268 245 249 251 257 262 282 272 232 185 155 197 195 139 127 103 80 72 67 4 296 288 289 269 287 321 335 356 359 357 22 65 64 28 320 56 73 48 36 48 52 25 12 4 356 346 339 335 330 312 301 289 289 284 288 284 288 267 209 198 200 189 188 191 189 194